Location: Hylvaty SDH
(49.9612°N, 16.4057°E)
Time: 11:29:29
(UTC+01:00)

A-11 Canister half - Pass Details

Date: 09 October 2020
Orbit: 1526 x 1683 km, 47.3° (Epoch: 28 October)

Event Time Altitude Azimuth Distance (km) Brightness Sun altitude
Rises 23:07:29 0° 264° (W) 4,675 11.8 -42.5°
Reaches altitude 10° 23:10:30 10° 263° (W) 3,693 11.2 -42.7°
Enters shadow 23:14:25 29° 259° (W) 2,498 10.1 -43.1°
Maximum altitude 23:19:46 77° 180° (S) 1,574 - -43.5°
Drops below altitude 10° 23:29:14 10° 96° (E) 3,757 - -44.2°
Sets 23:32:20 0° 95° (E) 4,760 - -44.4°
